Regional Weather Roundup
Issued by NWS

Home | Current Version | Previous Version | Graphics & Text | Print | Product List | Glossary On
Versions: 1 2 3 4 5 6 7 8 9 10 11 12 13 14 15 16 17 18 19 20 21 22 23 24 25 26 27 28
000
ASUS45 KTFX 211710
RWRMT
MONTANA REGIONAL WEATHER ROUNDUP
NATIONAL WEATHER SERVICE GREAT FALLS MT
1000 AM MST TUE FEB 21 2017

NOTE: "FAIR" INDICATES FEW OR NO CLOUDS BELOW 12000 FEET WITH NO
SIGNIFICANT WEATHER AND/OR OBSTRUCTIONS TO VISIBILITY.

MTZ001>007-043-211800-
WEST OF THE DIVIDE

CITY           SKY/WX    TMP DP  RH WIND       PRES   REMARKS
KALISPELL      LGT SNOW  33  31  92 CALM      29.64S FOG
MISSOULA       CLOUDY    33  33 100 CALM      29.66S FOG
BUTTE          PTSUNNY   38  33  82 NE7       29.69F
MULLAN PASS    SNOW      28  28 100 S8G16     29.58R VSB 1/4 WCI  20
ANACONDA         N/A     39  34  81 S17G29    29.68R WCI  30
DEER LODGE       N/A     43  36  75 S7        29.68R
EUREKA           N/A     32  30  93 CALM      29.67R
HAMILTON         N/A     43  36  75 S7        29.67R
LIBBY            N/A     34  32  93 CALM      29.66R
PLAINS           N/A     33  28  82 CALM      29.70R VSB 0
RONAN            N/A     33  31  93 CALM      29.71R
$$

MTZ008-052>055-211800-
SOUTHWEST MONTANA

CITY           SKY/WX    TMP DP  RH WIND       PRES   REMARKS
BOZEMAN        CLOUDY    49  31  49 SW6       29.69F
DILLON         SUNNY     46  25  43 SW23G39   29.74R
W YELLOWSTONE  CLOUDY    34  32  93 SW16G23   29.87R WCI  23
ENNIS          SUNNY     46  28  49 S29G38    29.78S
THREE FORKS      N/A     55  55 100 SW22      29.70F
TWIN BRIDGES     N/A     47  29  50 S14       29.75R
$$

MTZ009-010-012-014-046-048-049-054-211800-
EAST SLOPES AND CENTRAL MONTANA

CITY           SKY/WX    TMP DP  RH WIND       PRES   REMARKS
CUT BANK       CLOUDY    35  26  69 CALM      29.62R
GREAT FALLS    CLOUDY    40  33  76 CALM      29.60F
MALMSTROM AFB  CLOUDY    40  37  88 SE5       29.61S
HELENA         CLOUDY    38  33  82 NW7       29.64S
AUGUSTA        LGT RAIN  36  31  79 NW13      29.61R WCI  28
BOWMANS CRNR   PTSUNNY   39  33  80 W5        29.59R
CHOTEAU          N/A     37  32  81 NW7       29.63R
CONRAD           N/A     37  32  82 NE2       29.67S
POWER          LGT RAIN  40  33  76 S7        29.60S
RAYNESFORD     PTSUNNY   41  33  72 E12       29.61F
ULM            PTSUNNY   43  33  69 MISG      29.61S
$$

MTZ011-013-016-021-045-047-050-051-211800-
NORTH CENTRAL MONTANA

CITY           SKY/WX    TMP DP  RH WIND       PRES   REMARKS
HAVRE          CLOUDY    37  32  82 CALM      29.66R
LEWISTOWN      CLOUDY    41  33  73 SE15      29.64F
N BAR RANCH      N/A     39  32  75 SE5       29.69F
CHINOOK          N/A     39  30  70 CALM      29.67S
DENTON         PTSUNNY   41  36  84 E8        29.61S
FORT BENTON      N/A     37  34  87 N6        29.66R
GEYSER         CLOUDY    38  34  85 CALM      29.63S
GRASS RANGE    LGT RAIN  40  37  89 CALM      29.64F
JUDITH GAP     PTSUNNY   45  32  60 S8        29.64F
ROY            PTSUNNY   42  38  86 MISG      29.65F
STANFORD       PTSUNNY   40  33  77 E8        29.62S
WINIFRED       CLOUDY    40  37  86 E9        29.64F
$$

MTZ017>020-022>027-061-062-211800-
NORTHEAST MONTANA

CITY           SKY/WX    TMP DP  RH WIND       PRES   REMARKS
JORDAN           N/A     45  39  79 SW8       29.69R
SIDNEY         MOSUNNY   41  34  76 S6        29.68S
WOLF POINT     CLOUDY    34  32  92 CALM      29.67S
PLENTYWOOD       N/A     39  36  87 CALM      29.64R
POPLAR           N/A     34  30  86 CALM      29.68S
SCOBEY           N/A     41  30  65 SW10      29.63S
$$

MTZ028>42-056>058-211800-
SOUTHCENTRAL AND SOUTHEAST MONTANA

CITY           SKY/WX    TMP DP  RH WIND       PRES   REMARKS
BAKER          PTSUNNY   51  34  52 NW9       29.72F
BILLINGS       MOSUNNY   53  33  46 SW12      29.68S
LIVINGSTON     CLOUDY    52  29  41 SW36G47   29.65F
MILES CITY     CLOUDY    47  38  71 S6        29.71R
BIG TIMBER     SUNNY     50  32  50 W13       29.70R
EKALAKA          N/A     53  31  43 CALM      29.73S
FORSYTH          N/A     48  41  76 CALM      29.70F VSB 1/2
HARLOWTON        N/A     43  33  65 NE12      29.65F
LAUREL           N/A     54  31  41 S8        29.71F
$$

REGIONAL REPORTS...DAKOTAS

CITY           SKY/WX    TMP DP  RH WIND       PRES   REMARKS
WILLISTON      MOSUNNY   39  32  76 SW6       29.66S
MINOT          SUNNY     44  33  65 SW9       29.64S
DICKINSON      MOSUNNY   48  32  53 W9        29.68S
BEACH            N/A    N/A N/A N/A MISG        N/A
CROSBY           N/A     37  37 100 SW8       29.65S WCI  31
TIOGA            N/A     36  36 100 SW7       29.66S WCI  30
WATFORD CITY     N/A     37  32  81 SW10      29.67S WCI  30
BISMARCK       MOSUNNY   44  32  62 S3        29.70S
GRAND FORKS    MOSUNNY   37  31  78 S6        29.67F
FARGO          CLOUDY    41  35  79 S9        29.67F
BUFFALO SD       N/A     58  34  40 W9        29.67R
RAPID CITY     SUNNY     65  32  29 W20G29    29.75S
$$

REGIONAL REPORTS...WYOMING/IDAHO/WASHINGTON

CITY           SKY/WX    TMP DP  RH WIND       PRES   REMARKS
GILLETTE       SUNNY     57  33  40 SW28G38   29.77R
SHERIDAN       PTSUNNY   50  32  50 VRB6      29.74R
BUFFALO WY     SUNNY     57  29  34 W22G32    29.78R
CODY           LGT RAIN  43  37  79 SW13      29.82R
YELLOWSTONE LA   N/A     31  27  85 W14G28    29.89F WCI  21
IDAHO FALLS    PTSUNNY   40  37  89 S15       29.94F
SALMON         CLOUDY    45  30  57 S23G31    29.75R
BOISE          MOSUNNY   52  31  44 SW21G31   29.89R
SPOKANE        SNOW      33  32  96 N6        29.67S VSB 1/2 WCI  28
$$

REGIONAL REPORTS...ALBERTA

CITY           SKY/WX    TMP DP  RH WIND       PRES   REMARKS
EDMONTON       CLOUDY    34  28  80 SW6       29.67R WCI  29
CALGARY        LGT SNOW  28  25  86 VRB2      29.65R FOG
LETHBRIDGE     FOG       30  30 100 NE3       29.66R VSB 1/4
MEDICINE HAT   FOG       34  34 100 N5        29.68R VSB 1/4
WATERTON GATE    N/A     34  25  69 E3          N/A
MILK RIVER       N/A     34  30  86 S2          N/A
ONEFOUR          N/A     34  32  93 NW12        N/A  WCI  25
$$

REGIONAL REPORTS...SASKATCHEWAN

CITY           SKY/WX    TMP DP  RH WIND       PRES   REMARKS
SWIFT CURRENT  LGT SNOW  30  30 100 NE10      29.65R WCI  21
REGINA         LGT SNOW  34  30  86 NE10      29.66R FOG     WCI  26
SASKATOON      CLOUDY    34  25  69 VRB5      29.73R
VAL MARIE        N/A     36  32  87 NW13        N/A  WCI  27
ASSINIBOIA       N/A     34  28  80 SW3         N/A
$$




USA.gov is the U.S. government's official web portal to all federal, state and local government web resources and services.